Home   Weather   Gaggenau   Past weeks

Flag for Germany Past Weather in Gaggenau, Baden-Württemberg, Germany — Yesterday and Last 2 Weeks

Now
30 °F

Clear.


Feels Like: 20 °F
Forecast: 21 / 36 °F
Wind: 14 mph from Northeast

Location: Karlsruhe - Baden Wurttemberg

Current Time: Dec 3, 2016 at 9:02:30 pm

Latest Report: Dec 3, 2016 at 8:20 pm


Visibility: 10 mi

Pressure: 30.24 "Hg

Humidity: 86%

Dew Point: 27 °F

Location of GaggenauLocation

Past Weather in Gaggenau — Graph

°F

Gaggenau Temperature Yesterday

Maximum temperature yesterday: 41 °F (at 12:50 pm)
Minimum temperature yesterday: 36 °F (at 4:50 am)
Average temperature yesterday: 39 °F

High & Low Weather Summary for the Past Weeks

 TemperatureHumidityPressure
High63 °F (Nov 20, 2:20 pm)100% (Nov 19, 10:20 am)30.60 "Hg (Nov 19, 10:20 am)
Low18 °F (Nov 30, 7:20 am)44% (Nov 20, 11:50 am)29.59 "Hg (Nov 20, 1:20 pm)
Average41 °F86%30.07 "Hg
* Reported Nov 18 7:20 pm — Dec 3 7:50 pm, Gaggenau, Weather by CustomWeather, © 2016

Note: Actual official high and low records may vary slightly from our data, if they occured in-between our weather recording intervals... More about our weather records

Advertising

Gaggenau Weather History for the Previous 24 Hours

Scroll right to see more
 ConditionsComfort  
Time TempWeatherWind HumidityBarometerVisibility
7:50 pm
Sat, Dec 3
32 °FClear.13 mph87%30.21 "Hg10 mi
7:20 pm32 °FClear.13 mph80%30.21 "Hg10 mi
6:50 pm34 °FClear.14 mph75%30.21 "Hg10 mi
6:20 pm34 °FClear.13 mph81%30.21 "Hg10 mi
5:50 pm36 °FClear.12 mph75%30.21 "Hg10 mi
5:20 pm36 °FClear.13 mph75%30.21 "Hg10 mi
4:50 pm36 °FClear.13 mph75%30.21 "Hg10 mi
4:20 pm37 °FSunny.14 mph70%30.18 "Hg10 mi
3:50 pm39 °FSunny.15 mph65%30.18 "Hg10 mi
3:20 pm41 °FSunny.14 mph61%30.18 "Hg10 mi
2:50 pm41 °FSunny.16 mph61%30.18 "Hg10 mi
2:20 pm41 °FSunny.15 mph66%30.18 "Hg10 mi
1:50 pm41 °FSunny.15 mph70%30.18 "Hg10 mi
1:20 pm41 °FSunny.14 mph70%30.18 "Hg10 mi
12:50 pm39 °FPassing clouds.14 mph75%30.18 "HgN/A
12:20 pm39 °FSunny.14 mph75%30.21 "Hg10 mi
11:50 am39 °FSunny.13 mph75%30.21 "Hg10 mi
11:20 am37 °FSunny.14 mph81%30.21 "Hg10 mi
10:50 am37 °FSunny.13 mph87%30.21 "Hg10 mi
10:20 am36 °FSunny.15 mph93%30.21 "Hg10 mi
9:50 am34 °FPassing clouds.15 mph93%30.21 "HgN/A
9:20 am34 °FScattered clouds.14 mph93%30.21 "Hg5 mi
8:50 am32 °FPartly sunny.13 mph100%30.18 "Hg4 mi
8:20 am32 °FPartly sunny.12 mph100%30.18 "Hg4 mi
7:50 am32 °FPassing clouds.9 mph100%30.18 "Hg4 mi
7:20 am32 °FIce fog.10 mph100%30.18 "Hg3 mi
6:50 am32 °FIce fog.12 mph100%30.18 "Hg2 mi
6:20 am32 °FIce fog.13 mph100%30.18 "Hg2 mi
5:50 am32 °FPassing clouds.10 mph100%30.15 "Hg6 mi
5:20 am32 °FPassing clouds.12 mph100%30.15 "Hg6 mi
4:50 am34 °FPassing clouds.12 mph100%30.15 "HgN/A
10:50 pm
Fri, Dec 2
39 °FPartly cloudy.2 mph93%30.18 "HgN/A
10:20 pm39 °FPartly cloudy.5 mph93%30.18 "HgN/A
9:50 pm39 °FPassing clouds.2 mph93%30.18 "HgN/A
9:20 pm39 °FPassing clouds.No wind93%30.18 "HgN/A
Weather by CustomWeather, © 2016

See weather overviewHow to use our weather pages